START_TIME,STEP,MOV.,H8,t_acc.,H43,t_acc.,M25,t_acc.,H9,t_acc.
1989-08-27T00:00:30.110 ,1,0,0.,12.0,0.,12.0,0.,12.0,0.,12.0
1989-08-27T00:00:42.110 ,1,0,0.,12.0,0.,12.0,0.,12.0,0.,12.0
1989-08-27T00:00:54.110 ,2,0,0.,12.0,0.,12.0,0.,12.0,0.,12.0
1989-08-27T00:01:06.110 ,2,0,0.,12.0,0.,12.0,0.,12.0,0.,12.0
1989-08-27T00:01:18.110 ,2,0,0.,12.0,0.,12.0,0.,12.0,0.,12.0
1989-08-27T00:01:30.110 ,2,0,0.,12.0,0.,12.0,0.,12.0,0.,12.0
1989-08-27T00:01:42.110 ,3,0,0.,12.0,0.,12.0,0.,12.0,0.,12.0
1989-08-27T00:01:54.110 ,3,0,0.,12.0,0.,12.0,0.,12.0,0.,12.0
1989-08-27T00:02:06.110 ,3,0,0.,12.0,0.,12.0,0.,12.0,0.,12.0
1989-08-27T00:02:18.110 ,3,0,0.,12.0,0.,12.0,0.,12.0,0.,12.0
1989-08-27T00:02:30.110 ,4,0,0.,12.0,0.,12.0,0.,12.0,0.,12.0
1989-08-27T00:02:42.110 ,4,0,0.,12.0,0.,12.0,0.,12.0,0.,12.0
1989-08-27T00:02:54.110 ,4,0,0.,12.0,0.,12.0,0.,12.0,0.,12.0
1989-08-27T00:03:06.110 ,4,0,0.,12.0,0.,12.0,0.,12.0,0.,12.0
1989-08-27T00:03:18.110 ,5,0,0.,12.0,0.,12.0,0.,12.0,0.,12.0
1989-08-27T00:03:30.110 ,5,0,0.,12.0,0.,12.0,0.,12.0,0.,12.0
1989-08-27T00:03:42.110 ,5,0,0.,12.0,0.,12.0,0.,12.0,0.,12.0
1989-08-27T00:03:54.110 ,5,0,0.,12.0,0.,12.0,0.,12.0,0.,12.0
1989-08-27T00:04:06.110 ,6,0,0.,12.0,0.,12.0,0.,12.0,0.,12.0
1989-08-27T00:04:18.110 ,6,0,0.,12.0,0.,12.0,0.,12.0,0.,12.0
1989-08-27T00:04:30.110 ,6,0,0.,12.0,0.,12.0,0.,12.0,0.,12.0
1989-08-27T00:04:42.110 ,6,0,0.,12.0,0.,12.0,0.,12.0,0.,12.0
1989-08-27T00:04:54.110 ,7,0,0.,12.0,0.,12.0,0.,12.0,0.,12.0
1989-08-27T00:05:06.110 ,7,0,0.,12.0,0.,12.0,0.,12.0,0.,12.0
1989-08-27T00:05:18.110 ,7,0,0.,12.0,0.,12.0,0.,12.0,0.,12.0
1989-08-27T00:05:30.110 ,7,0,0.,12.0,0.,12.0,0.,12.0,0.,12.0
1989-08-27T00:05:42.110 ,7,0,0.,12.0,0.,12.0,0.,12.0,0.,12.0
1989-08-27T00:05:54.110 ,7,0,0.,12.0,0.,12.0,0.,12.0,0.,12.0
1989-08-27T00:06:06.110 ,7,0,0.,12.0,0.,12.0,0.,12.0,0.,12.0
1989-08-27T00:06:18.110 ,7,0,0.,12.0,0.,12.0,0.,12.0,0.,12.0
1989-08-27T00:06:30.110 ,6,0,0.,12.0,0.,12.0,0.,12.0,0.,12.0
1989-08-27T00:06:42.110 ,6,0,0.,12.0,0.,12.0,0.,12.0,0.,12.0
1989-08-27T00:06:54.110 ,6,0,0.,12.0,0.,12.0,0.,12.0,0.,12.0
1989-08-27T00:07:06.110 ,6,0,0.,12.0,0.,12.0,0.,12.0,0.,12.0
1989-08-27T00:07:18.110 ,5,0,0.,12.0,0.,12.0,0.,12.0,0.,12.0
1989-08-27T00:07:30.110 ,5,0,0.,12.0,0.,12.0,0.,12.0,0.,12.0
1989-08-27T00:07:42.110 ,5,0,0.,12.0,0.,12.0,0.,12.0,0.,12.0
1989-08-27T00:07:54.110 ,5,0,0.,12.0,0.,12.0,0.,12.0,0.,12.0
1989-08-27T00:08:06.110 ,4,0,0.,12.0,0.,12.0,0.,12.0,0.,12.0
1989-08-27T00:08:18.110 ,4,0,0.,12.0,0.,12.0,0.,12.0,0.,12.0
1989-08-27T00:08:30.110 ,4,0,0.,12.0,0.,12.0,0.,12.0,0.,12.0
1989-08-27T00:08:42.110 ,4,0,0.,12.0,0.,12.0,0.,12.0,0.,12.0
1989-08-27T00:08:54.110 ,3,0,0.,12.0,0.,12.0,0.,12.0,0.,12.0
1989-08-27T00:09:06.110 ,3,0,0.,12.0,0.,12.0,0.,12.0,0.,12.0
1989-08-27T00:09:18.110 ,3,0,0.,12.0,0.,12.0,0.,12.0,0.,12.0
1989-08-27T00:09:30.110 ,3,0,0.,12.0,0.,12.0,0.,12.0,0.,12.0
1989-08-27T00:09:42.110 ,2,0,0.,12.0,0.,12.0,0.,12.0,0.,12.0
1989-08-27T00:09:54.110 ,2,0,0.,12.0,0.,12.0,0.,12.0,0.,12.0
1989-08-27T00:10:06.110 ,2,0,0.,12.0,0.,12.0,0.,12.0,0.,12.0
1989-08-27T00:10:18.110 ,2,0,0.,12.0,0.,12.0,0.,12.0,0.,12.0
1989-08-27T00:10:30.110 ,1,0,0.,12.0,0.,12.0,0.,12.0,0.,12.0
1989-08-27T00:10:42.110 ,1,0,0.,12.0,0.,12.0,0.,12.0,0.,12.0
1989-08-27T00:10:54.110 ,1,0,0.,12.0,0.,12.0,0.,12.0,0.,12.0
1989-08-27T00:11:06.110 ,1,0,0.,12.0,0.,12.0,0.,12.0,0.,12.0
1989-08-27T00:11:18.110 ,0,0,0.,12.0,0.,12.0,0.,12.0,0.,12.0
1989-08-27T00:11:30.110 ,0,0,0.,12.0,0.,12.0,0.,12.0,0.,12.0
1989-08-27T00:11:42.110 ,0,0,0.,12.0,0.,12.0,0.,12.0,0.,12.0
1989-08-27T00:11:54.110 ,0,0,0.,12.0,0.,12.0,0.,12.0,0.,12.0
1989-08-27T00:12:06.100 ,0,0,0.,12.0,0.,12.0,0.,12.0,0.,12.0
1989-08-27T00:12:18.100 ,0,0,0.,12.0,0.,12.0,0.,12.0,0.,12.0
1989-08-27T00:12:30.100 ,0,0,0.,12.0,0.,12.0,0.,12.0,0.,12.0
1989-08-27T00:12:42.100 ,0,0,0.,12.0,0.,12.0,0.,12.0,0.,12.0
1989-08-27T00:12:54.100 ,1,0,0.,12.0,0.,12.0,0.,12.0,0.,12.0
1989-08-27T00:13:06.100 ,1,0,0.,12.0,0.,12.0,0.,12.0,0.,12.0
1989-08-27T00:13:18.100 ,1,0,0.,12.0,0.,12.0,0.,12.0,0.,12.0
1989-08-27T00:13:30.100 ,1,0,0.,12.0,0.,12.0,0.,12.0,0.,12.0
1989-08-27T00:13:42.100 ,2,0,0.,12.0,0.,12.0,0.,12.0,0.,12.0
1989-08-27T00:13:54.100 ,2,0,0.,12.0,0.,12.0,0.,12.0,0.,12.0
1989-08-27T00:14:06.100 ,2,0,0.,12.0,0.,12.0,0.,12.0,0.,12.0
1989-08-27T00:14:18.100 ,2,0,0.,12.0,0.,12.0,0.,12.0,0.,12.0
1989-08-27T00:14:30.100 ,3,0,0.,12.0,0.,12.0,0.,12.0,0.,12.0
1989-08-27T00:14:42.100 ,3,0,0.,12.0,0.,12.0,0.,12.0,0.,12.0
1989-08-27T00:14:54.100 ,3,0,0.,12.0,0.,12.0,0.,12.0,0.,12.0
1989-08-27T00:15:06.100 ,3,0,0.,12.0,0.,12.0,0.,12.0,0.,12.0
1989-08-27T00:15:18.100 ,4,0,0.,12.0,0.,12.0,0.,12.0,0.,12.0
1989-08-27T00:15:30.100 ,4,0,0.,12.0,0.,12.0,0.,12.0,0.,12.0
1989-08-27T00:15:42.100 ,4,0,0.,12.0,0.,12.0,0.,12.0,0.,12.0
1989-08-27T00:15:54.100 ,4,0,0.,12.0,0.,12.0,0.,12.0,0.,12.0
1989-08-27T00:16:06.100 ,5,0,0.,12.0,0.,12.0,0.,12.0,0.,12.0
1989-08-27T00:16:18.100 ,5,0,0.,12.0,0.,12.0,0.,12.0,0.,12.0
1989-08-27T00:16:30.100 ,5,0,0.,12.0,0.,12.0,0.,12.0,0.,12.0
1989-08-27T00:16:42.100 ,5,0,0.,12.0,0.,12.0,0.,12.0,0.,12.0
1989-08-27T00:16:54.100 ,6,0,0.,12.0,0.,12.0,0.,12.0,0.,12.0
1989-08-27T00:17:06.100 ,6,0,0.,12.0,0.,12.0,0.,12.0,0.,12.0
1989-08-27T00:17:18.100 ,6,0,0.,12.0,0.,12.0,0.,12.0,0.,12.0
1989-08-27T00:17:30.100 ,6,0,0.,12.0,0.,12.0,0.,12.0,0.,12.0
1989-08-27T00:17:42.100 ,7,0,0.,12.0,0.,12.0,0.,12.0,0.,12.0
1989-08-27T00:17:54.100 ,7,0,0.,12.0,0.,12.0,0.,12.0,0.,12.0
1989-08-27T00:18:06.100 ,7,0,0.,12.0,0.,12.0,0.,12.0,0.,12.0
1989-08-27T00:18:18.100 ,7,0,0.,12.0,0.,12.0,0.,12.0,0.,12.0
1989-08-27T00:18:30.100 ,7,0,0.,12.0,0.,12.0,0.,12.0,0.,12.0
1989-08-27T00:18:42.100 ,7,0,0.,12.0,0.,12.0,0.,12.0,0.,12.0
1989-08-27T00:18:54.100 ,7,0,0.,12.0,0.,12.0,0.,12.0,0.,12.0
1989-08-27T00:19:06.100 ,7,0,0.,12.0,0.,12.0,0.,12.0,0.,12.0
1989-08-27T00:19:18.100 ,6,0,0.,12.0,0.,12.0,0.,12.0,0.,12.0
1989-08-27T00:19:30.100 ,6,0,0.,12.0,0.,12.0,0.,12.0,0.,12.0
1989-08-27T00:19:42.100 ,6,0,0.,12.0,0.,12.0,0.,12.0,0.,12.0
1989-08-27T00:19:54.100 ,6,0,0.,12.0,0.,12.0,0.,12.0,0.,12.0
1989-08-27T00:20:06.100 ,5,0,0.,12.0,0.,12.0,0.,12.0,0.,12.0
1989-08-27T00:20:18.100 ,5,0,0.,12.0,0.,12.0,0.,12.0,0.,12.0
1989-08-27T00:20:30.100 ,5,0,0.,12.0,0.,12.0,0.,12.0,0.,12.0
1989-08-27T00:20:42.100 ,5,0,0.,12.0,0.,12.0,0.,12.0,0.,12.0
1989-08-27T00:20:54.100 ,4,0,0.,12.0,0.,12.0,0.,12.0,0.,12.0
1989-08-27T00:21:06.100 ,4,0,0.,12.0,0.,12.0,0.,12.0,0.,12.0
1989-08-27T00:21:18.100 ,4,0,0.,12.0,0.,12.0,0.,12.0,0.,12.0
1989-08-27T00:21:30.100 ,4,0,0.,12.0,0.,12.0,0.,12.0,0.,12.0
1989-08-27T00:21:42.100 ,3,0,0.,12.0,0.,12.0,0.,12.0,0.,12.0
1989-08-27T00:21:54.100 ,3,0,0.,12.0,0.,12.0,0.,12.0,0.,12.0
1989-08-27T00:22:06.100 ,3,0,0.,12.0,0.,12.0,0.,12.0,0.,12.0
1989-08-27T00:22:18.100 ,3,0,0.,12.0,0.,12.0,0.,12.0,0.,12.0
1989-08-27T00:22:30.100 ,2,0,0.,12.0,0.,12.0,0.,12.0,0.,12.0
1989-08-27T00:22:42.100 ,2,0,0.,12.0,0.,12.0,0.,12.0,0.,12.0
1989-08-27T00:22:54.100 ,2,0,0.,12.0,0.,12.0,0.,12.0,0.,12.0
1989-08-27T00:23:06.100 ,2,0,0.,12.0,0.,12.0,0.,12.0,0.,12.0
1989-08-27T00:23:18.100 ,1,0,0.,12.0,0.,12.0,0.,12.0,0.,12.0
1989-08-27T00:23:30.100 ,1,0,0.,12.0,0.,12.0,0.,12.0,0.,12.0
1989-08-27T00:23:42.100 ,1,0,0.,12.0,0.,12.0,0.,12.0,0.,12.0
1989-08-27T00:23:54.100 ,1,0,0.,12.0,0.,12.0,0.,12.0,0.,12.0
1989-08-27T00:24:06.100 ,0,0,0.,12.0,0.,12.0,0.,12.0,0.,12.0
1989-08-27T00:24:18.100 ,0,0,0.,12.0,0.,12.0,0.,12.0,0.,12.0
1989-08-27T00:24:30.100 ,0,0,0.,12.0,0.,12.0,0.,12.0,0.,12.0
1989-08-27T00:24:42.100 ,0,0,0.,12.0,0.,12.0,0.,12.0,0.,12.0
1989-08-27T00:24:54.100 ,0,0,0.,12.0,0.,12.0,0.,12.0,0.,12.0
1989-08-27T00:25:06.100 ,0,0,0.,12.0,0.,12.0,0.,12.0,0.,12.0
1989-08-27T00:25:18.100 ,0,0,0.,12.0,0.,12.0,0.,12.0,0.,12.0
1989-08-27T00:25:30.100 ,0,0,0.,12.0,0.,12.0,0.,12.0,0.,12.0
1989-08-27T00:25:42.100 ,1,0,0.,12.0,0.,12.0,0.,12.0,0.,12.0
1989-08-27T00:25:54.100 ,1,0,0.,12.0,0.,12.0,0.,12.0,0.,12.0
1989-08-27T00:26:06.100 ,1,0,0.,12.0,0.,12.0,0.,12.0,0.,12.0
1989-08-27T00:26:18.100 ,1,0,0.,12.0,0.,12.0,0.,12.0,0.,12.0
1989-08-27T00:26:30.100 ,2,0,0.,12.0,0.,12.0,0.,12.0,0.,12.0
1989-08-27T00:26:42.100 ,2,0,0.,12.0,0.,12.0,0.,12.0,0.,12.0
1989-08-27T00:26:54.100 ,2,0,0.,12.0,0.,12.0,0.,12.0,0.,12.0
1989-08-27T00:27:06.100 ,2,0,0.,12.0,0.,12.0,0.,12.0,0.,12.0
1989-08-27T00:27:18.100 ,3,0,0.,12.0,0.,12.0,0.,12.0,0.,12.0
1989-08-27T00:27:30.100 ,3,0,0.,12.0,0.,12.0,0.,12.0,0.,12.0
1989-08-27T00:27:42.100 ,3,0,0.,12.0,0.,12.0,0.,12.0,0.,12.0
1989-08-27T00:27:54.100 ,3,0,0.,12.0,0.,12.0,0.,12.0,0.,12.0
1989-08-27T00:28:06.100 ,4,0,0.,12.0,0.,12.0,0.,12.0,0.,12.0
1989-08-27T00:28:18.100 ,4,0,0.,12.0,0.,12.0,0.,12.0,0.,12.0
1989-08-27T00:28:30.100 ,4,0,0.,12.0,0.,12.0,0.,12.0,0.,12.0
1989-08-27T00:28:42.100 ,4,0,0.,12.0,0.,12.0,0.,12.0,0.,12.0
1989-08-27T00:28:54.100 ,5,0,0.,12.0,0.,12.0,0.,12.0,0.,12.0
1989-08-27T00:29:06.100 ,5,0,0.,12.0,0.,12.0,0.,12.0,0.,12.0
1989-08-27T00:29:18.100 ,5,0,0.,12.0,0.,12.0,0.,12.0,0.,12.0
1989-08-27T00:29:30.100 ,5,0,0.,12.0,0.,12.0,0.,12.0,0.,12.0
1989-08-27T00:29:42.100 ,6,0,0.,12.0,0.,12.0,0.,12.0,0.,12.0
1989-08-27T00:29:54.100 ,6,0,0.,12.0,0.,12.0,0.,12.0,0.,12.0
1989-08-27T00:30:06.100 ,6,0,0.,12.0,0.,12.0,0.,12.0,0.,12.0
1989-08-27T00:30:18.100 ,6,0,0.,12.0,0.,12.0,0.,12.0,0.,12.0
1989-08-27T00:30:30.100 ,7,0,0.,12.0,0.,12.0,0.,12.0,0.,12.0
1989-08-27T00:30:42.100 ,7,0,0.,12.0,0.,12.0,0.,12.0,0.,12.0
1989-08-27T00:30:54.100 ,7,0,0.,12.0,0.,12.0,0.,12.0,0.,12.0
1989-08-27T00:31:06.100 ,7,0,0.,12.0,0.,12.0,0.,12.0,0.,12.0
1989-08-27T00:31:18.100 ,7,0,0.,12.0,0.,12.0,0.,12.0,0.,12.0
1989-08-27T00:31:30.100 ,7,0,0.,12.0,0.,12.0,0.,12.0,0.,12.0
1989-08-27T00:31:42.100 ,7,0,0.,12.0,0.,12.0,0.,12.0,0.,12.0
1989-08-27T00:31:54.100 ,7,0,0.,12.0,0.,12.0,0.,12.0,0.,12.0
1989-08-27T00:32:06.100 ,6,0,0.,12.0,0.,12.0,0.,12.0,0.,12.0
1989-08-27T00:32:18.100 ,6,0,0.,12.0,0.,12.0,0.,12.0,0.,12.0
1989-08-27T00:32:30.100 ,6,0,0.,12.0,0.,12.0,0.,12.0,0.,12.0
1989-08-27T00:32:42.100 ,6,0,0.,12.0,0.,12.0,0.,12.0,0.,12.0
1989-08-27T00:32:54.100 ,5,0,0.,12.0,0.,12.0,0.,12.0,0.,12.0
1989-08-27T00:33:06.100 ,5,0,0.,12.0,0.,12.0,0.,12.0,0.,12.0
1989-08-27T00:33:18.100 ,5,0,0.,12.0,0.,12.0,0.,12.0,0.,12.0
1989-08-27T00:33:30.100 ,5,0,0.,12.0,0.,12.0,0.,12.0,0.,12.0
1989-08-27T00:33:42.100 ,4,0,0.,12.0,0.,12.0,0.,12.0,0.,12.0
1989-08-27T00:33:54.100 ,4,0,0.,12.0,0.,12.0,0.,12.0,0.,12.0
1989-08-27T00:34:06.100 ,4,0,0.,12.0,0.,12.0,0.,12.0,0.,12.0
1989-08-27T00:34:18.100 ,4,0,0.,12.0,0.,12.0,0.,12.0,0.,12.0
1989-08-27T00:34:30.100 ,3,0,0.,12.0,0.,12.0,0.,12.0,0.,12.0
1989-08-27T00:34:42.100 ,3,0,0.,12.0,0.,12.0,0.,12.0,0.,12.0
1989-08-27T00:34:54.100 ,3,0,0.,12.0,0.,12.0,0.,12.0,0.,12.0
1989-08-27T00:35:06.100 ,3,0,0.,12.0,0.,12.0,0.,12.0,0.,12.0
1989-08-27T00:35:18.100 ,2,0,0.,12.0,0.,12.0,0.,12.0,0.,12.0
1989-08-27T00:35:30.100 ,2,0,0.,12.0,0.,12.0,0.,12.0,0.,12.0
1989-08-27T00:35:42.100 ,2,0,0.,12.0,0.,12.0,0.,12.0,0.,12.0
1989-08-27T00:35:54.100 ,2,0,0.,12.0,0.,12.0,0.,12.0,0.,12.0
1989-08-27T00:36:06.100 ,1,0,0.,12.0,0.,12.0,0.,12.0,0.,12.0
1989-08-27T00:36:18.100 ,1,0,0.,12.0,0.,12.0,0.,12.0,0.,12.0
1989-08-27T00:36:30.100 ,1,0,0.,12.0,0.,12.0,0.,12.0,0.,12.0
1989-08-27T00:36:42.100 ,1,0,0.,12.0,0.,12.0,0.,12.0,0.,12.0
1989-08-27T00:36:54.100 ,0,0,0.,12.0,0.,12.0,0.,12.0,0.,12.0
1989-08-27T00:37:06.100 ,0,0,0.,12.0,0.,12.0,0.,12.0,0.,12.0
1989-08-27T00:37:18.100 ,0,0,0.,12.0,0.,12.0,0.,12.0,0.,12.0
1989-08-27T00:37:30.100 ,0,0,0.,12.0,0.,12.0,0.,12.0,0.,12.0
1989-08-27T00:37:42.100 ,0,0,0.,12.0,0.,12.0,0.,12.0,0.,12.0
1989-08-27T00:37:54.100 ,0,0,0.,12.0,0.,12.0,0.,12.0,0.,12.0
1989-08-27T00:38:06.100 ,0,0,0.,12.0,0.,12.0,0.,12.0,0.,12.0
1989-08-27T00:38:18.100 ,0,0,0.,12.0,0.,12.0,0.,12.0,0.,12.0
1989-08-27T00:38:30.100 ,1,0,0.,12.0,0.,12.0,0.,12.0,0.,12.0
1989-08-27T00:38:42.100 ,1,0,0.,12.0,0.,12.0,0.,12.0,0.,12.0
1989-08-27T00:38:54.100 ,1,0,0.,12.0,0.,12.0,0.,12.0,0.,12.0
1989-08-27T00:39:06.100 ,1,0,0.,12.0,0.,12.0,0.,12.0,0.,12.0
1989-08-27T00:39:18.100 ,2,0,0.,12.0,0.,12.0,0.,12.0,0.,12.0
1989-08-27T00:39:30.100 ,2,0,0.,12.0,0.,12.0,0.,12.0,0.,12.0
1989-08-27T00:39:42.100 ,2,0,0.,12.0,0.,12.0,0.,12.0,0.,12.0
1989-08-27T00:39:54.100 ,2,0,0.,12.0,0.,12.0,0.,12.0,0.,12.0
1989-08-27T00:40:06.100 ,3,0,0.,12.0,0.,12.0,0.,12.0,0.,12.0
1989-08-27T00:40:18.100 ,3,0,0.,12.0,0.,12.0,0.,12.0,0.,12.0
1989-08-27T00:40:30.100 ,3,0,0.,12.0,0.,12.0,0.,12.0,0.,12.0
1989-08-27T00:40:42.100 ,3,0,0.,12.0,0.,12.0,0.,12.0,0.,12.0
1989-08-27T00:40:54.100 ,4,0,0.,12.0,0.,12.0,0.,12.0,0.,12.0
1989-08-27T00:41:06.100 ,4,0,0.,12.0,0.,12.0,0.,12.0,0.,12.0
1989-08-27T00:41:18.100 ,4,0,0.,12.0,0.,12.0,0.,12.0,0.,12.0
1989-08-27T00:41:30.100 ,4,0,0.,12.0,0.,12.0,0.,12.0,0.,12.0
1989-08-27T00:41:42.100 ,5,0,0.,12.0,0.,12.0,0.,12.0,0.,12.0
1989-08-27T00:41:54.100 ,5,0,0.,12.0,0.,12.0,0.,12.0,0.,12.0
1989-08-27T00:42:06.100 ,5,0,0.,12.0,0.,12.0,0.,12.0,0.,12.0
1989-08-27T00:42:18.100 ,5,0,0.,12.0,0.,12.0,0.,12.0,0.,12.0
1989-08-27T00:42:30.100 ,6,0,0.,12.0,0.,12.0,0.,12.0,0.,12.0
1989-08-27T00:42:42.100 ,6,0,0.,12.0,0.,12.0,0.,12.0,0.,12.0
1989-08-27T00:42:54.100 ,6,0,0.,12.0,0.,12.0,0.,12.0,0.,12.0
1989-08-27T00:43:06.100 ,6,0,0.,12.0,0.,12.0,0.,12.0,0.,12.0
1989-08-27T00:43:18.100 ,7,0,0.,12.0,0.,12.0,0.,12.0,0.,12.0
1989-08-27T00:43:30.100 ,7,0,0.,12.0,0.,12.0,0.,12.0,0.,12.0
1989-08-27T00:43:42.100 ,7,0,0.,12.0,0.,12.0,0.,12.0,0.,12.0
1989-08-27T00:43:54.100 ,7,0,0.,12.0,0.,12.0,0.,12.0,0.,12.0
1989-08-27T00:44:06.100 ,7,0,0.,12.0,0.,12.0,0.,12.0,0.,12.0
1989-08-27T00:44:18.100 ,7,0,0.,12.0,0.,12.0,0.,12.0,0.,12.0
1989-08-27T00:44:30.100 ,7,0,0.,12.0,0.,12.0,0.,12.0,0.,12.0
1989-08-27T00:44:42.100 ,7,0,0.,12.0,0.,12.0,0.,12.0,0.,12.0
1989-08-27T00:44:54.100 ,6,0,0.,12.0,0.,12.0,0.,12.0,0.,12.0
1989-08-27T00:45:06.100 ,6,0,0.,12.0,0.,12.0,0.,12.0,0.,12.0
1989-08-27T00:45:18.100 ,6,0,0.,12.0,0.,12.0,0.,12.0,0.,12.0
1989-08-27T00:45:30.100 ,6,0,0.,12.0,0.,12.0,0.,12.0,0.,12.0
1989-08-27T00:45:42.100 ,5,0,0.,12.0,0.,12.0,0.,12.0,0.,12.0
1989-08-27T00:45:54.100 ,5,0,0.,12.0,0.,12.0,0.,12.0,0.,12.0
1989-08-27T00:46:06.100 ,5,0,0.,12.0,0.,12.0,0.,12.0,0.,12.0
1989-08-27T00:46:18.100 ,5,0,0.,12.0,0.,12.0,0.,12.0,0.,12.0
1989-08-27T00:46:30.100 ,4,0,0.,12.0,0.,12.0,0.,12.0,0.,12.0
1989-08-27T00:46:42.100 ,4,0,0.,12.0,0.,12.0,0.,12.0,0.,12.0
1989-08-27T00:46:54.100 ,4,0,0.,12.0,0.,12.0,0.,12.0,0.,12.0
1989-08-27T00:47:06.100 ,4,0,0.,12.0,0.,12.0,0.,12.0,0.,12.0
1989-08-27T00:47:18.100 ,3,0,0.,12.0,0.,12.0,0.,12.0,0.,12.0
1989-08-27T00:47:30.100 ,3,0,0.,12.0,0.,12.0,0.,12.0,0.,12.0
1989-08-27T00:47:42.100 ,3,0,0.,12.0,0.,12.0,0.,12.0,0.,12.0
1989-08-27T00:47:54.100 ,3,0,0.,12.0,0.,12.0,0.,12.0,0.,12.0
1989-08-27T00:48:06.100 ,2,0,0.,12.0,0.,12.0,0.,12.0,0.,12.0
1989-08-27T00:48:18.100 ,2,0,0.,12.0,0.,12.0,0.,12.0,0.,12.0
1989-08-27T00:48:30.100 ,2,0,0.,12.0,0.,12.0,0.,12.0,0.,12.0
1989-08-27T00:48:42.100 ,2,0,0.,12.0,0.,12.0,0.,12.0,0.,12.0
1989-08-27T00:48:54.100 ,1,0,0.,12.0,0.,12.0,0.,12.0,0.,12.0
1989-08-27T00:49:06.100 ,1,0,0.,12.0,0.,12.0,0.,12.0,0.,12.0
1989-08-27T00:49:18.100 ,1,0,0.,12.0,0.,12.0,0.,12.0,0.,12.0
1989-08-27T00:49:30.100 ,1,0,0.,12.0,0.,12.0,0.,12.0,0.,12.0
1989-08-27T00:49:42.100 ,0,0,0.,12.0,0.,12.0,0.,12.0,0.,12.0
1989-08-27T00:49:54.100 ,0,0,0.,12.0,0.,12.0,0.,12.0,0.,12.0
1989-08-27T00:50:06.100 ,0,0,0.,12.0,0.,12.0,0.,12.0,0.,12.0
1989-08-27T00:50:18.100 ,0,0,0.,12.0,0.,12.0,0.,12.0,0.,12.0
1989-08-27T00:50:30.100 ,0,0,0.,12.0,0.,12.0,0.,12.0,0.,12.0
1989-08-27T00:50:42.100 ,0,0,0.,12.0,0.,12.0,0.,12.0,0.,12.0
1989-08-27T00:50:54.100 ,0,0,0.,12.0,0.,12.0,0.,12.0,0.,12.0
1989-08-27T00:51:06.100 ,0,0,0.,12.0,0.,12.0,0.,12.0,0.,12.0
1989-08-27T00:51:18.100 ,1,0,0.,12.0,0.,12.0,0.,12.0,0.,12.0
1989-08-27T00:51:30.100 ,1,0,0.,12.0,0.,12.0,0.,12.0,0.,12.0
1989-08-27T00:51:42.100 ,1,0,0.,12.0,0.,12.0,0.,12.0,0.,12.0
1989-08-27T00:51:54.100 ,1,0,0.,12.0,0.,12.0,0.,12.0,0.,12.0
1989-08-27T00:52:06.100 ,2,0,0.,12.0,0.,12.0,0.,12.0,0.,12.0
1989-08-27T00:52:18.100 ,2,0,0.,12.0,0.,12.0,0.,12.0,0.,12.0
1989-08-27T00:52:30.100 ,2,0,0.,12.0,0.,12.0,0.,12.0,0.,12.0
1989-08-27T00:52:42.100 ,2,0,0.,12.0,0.,12.0,0.,12.0,0.,12.0
1989-08-27T00:52:54.100 ,3,0,0.,12.0,0.,12.0,0.,12.0,0.,12.0
1989-08-27T00:53:06.100 ,3,0,0.,12.0,0.,12.0,0.,12.0,0.,12.0
1989-08-27T00:53:18.100 ,3,0,0.,12.0,0.,12.0,0.,12.0,0.,12.0
1989-08-27T00:53:30.100 ,3,0,0.,12.0,0.,12.0,0.,12.0,0.,12.0
1989-08-27T00:53:42.100 ,4,0,0.,12.0,0.,12.0,0.,12.0,0.,12.0
1989-08-27T00:53:54.100 ,4,0,0.,12.0,0.,12.0,0.,12.0,0.,12.0
1989-08-27T00:54:06.100 ,4,0,0.,12.0,0.,12.0,0.,12.0,0.,12.0
1989-08-27T00:54:18.100 ,4,0,0.,12.0,0.,12.0,0.,12.0,0.,12.0
1989-08-27T00:54:30.100 ,5,0,0.,12.0,0.,12.0,0.,12.0,0.,12.0
1989-08-27T00:54:42.100 ,5,0,0.,12.0,0.,12.0,0.,12.0,0.,12.0
1989-08-27T00:54:54.100 ,5,0,0.,12.0,0.,12.0,0.,12.0,0.,12.0
1989-08-27T00:55:06.100 ,5,0,0.,12.0,0.,12.0,0.,12.0,0.,12.0
1989-08-27T00:55:18.100 ,6,0,0.,12.0,0.,12.0,0.,12.0,0.,12.0
1989-08-27T00:55:30.100 ,6,0,0.,12.0,0.,12.0,0.,12.0,0.,12.0
1989-08-27T00:55:42.100 ,6,0,0.,12.0,0.,12.0,0.,12.0,0.,12.0
1989-08-27T00:55:54.100 ,6,0,0.,12.0,0.,12.0,0.,12.0,0.,12.0
1989-08-27T00:56:06.100 ,7,0,0.,12.0,0.,12.0,0.,12.0,0.,12.0
1989-08-27T00:56:18.100 ,7,0,0.,12.0,0.,12.0,0.,12.0,0.,12.0
1989-08-27T00:56:30.100 ,7,0,0.,12.0,0.,12.0,0.,12.0,0.,12.0
1989-08-27T00:56:42.100 ,7,0,0.,12.0,0.,12.0,0.,12.0,0.,12.0
1989-08-27T00:56:54.100 ,7,0,0.,12.0,0.,12.0,0.,12.0,0.,12.0
1989-08-27T00:57:06.100 ,7,0,0.,12.0,0.,12.0,0.,12.0,0.,12.0
1989-08-27T00:57:18.100 ,7,0,0.,12.0,0.,12.0,0.,12.0,0.,12.0
1989-08-27T00:57:30.100 ,7,0,0.,12.0,0.,12.0,0.,12.0,0.,12.0
1989-08-27T00:57:42.100 ,6,0,0.,12.0,0.,12.0,0.,12.0,0.,12.0
1989-08-27T00:57:54.100 ,6,0,0.,12.0,0.,12.0,0.,12.0,0.,12.0
1989-08-27T00:58:06.100 ,6,0,0.,12.0,0.,12.0,0.,12.0,0.,12.0
1989-08-27T00:58:18.100 ,6,0,0.,12.0,0.,12.0,0.,12.0,0.,12.0
1989-08-27T00:58:30.100 ,5,0,0.,12.0,0.,12.0,0.,12.0,0.,12.0
1989-08-27T00:58:42.100 ,5,0,0.,12.0,0.,12.0,0.,12.0,0.,12.0
1989-08-27T00:58:54.100 ,5,0,0.,12.0,0.,12.0,0.,12.0,0.,12.0
1989-08-27T00:59:06.100 ,5,0,0.,12.0,0.,12.0,0.,12.0,0.,12.0
1989-08-27T00:59:18.100 ,4,0,0.,12.0,0.,12.0,0.,12.0,0.,12.0
1989-08-27T00:59:30.100 ,4,0,0.,12.0,0.,12.0,0.,12.0,0.,12.0
1989-08-27T00:59:42.100 ,4,0,0.,12.0,0.,12.0,0.,12.0,0.,12.0
1989-08-27T00:59:54.100 ,4,0,0.,12.0,0.,12.0,0.,12.0,0.,12.0
1989-08-27T01:00:06.100 ,3,0,0.,12.0,0.,12.0,0.,12.0,0.,12.0
1989-08-27T01:00:18.100 ,3,0,0.,12.0,0.,12.0,0.,12.0,0.,12.0
1989-08-27T01:00:30.100 ,3,0,0.,12.0,0.,12.0,0.,12.0,0.,12.0
1989-08-27T01:00:42.100 ,3,0,0.,12.0,0.,12.0,0.,12.0,0.,12.0
1989-08-27T01:00:54.100 ,2,0,0.,12.0,0.,12.0,0.,12.0,0.,12.0
1989-08-27T01:01:06.100 ,2,0,0.,12.0,0.,12.0,0.,12.0,0.,12.0
1989-08-27T01:01:18.100 ,2,0,0.,12.0,0.,12.0,0.,12.0,0.,12.0
1989-08-27T01:01:30.100 ,2,0,0.,12.0,0.,12.0,0.,12.0,0.,12.0
1989-08-27T01:01:42.100 ,1,0,0.,12.0,0.,12.0,0.,12.0,0.,12.0
1989-08-27T01:01:54.100 ,1,0,0.,12.0,0.,12.0,0.,12.0,0.,12.0
1989-08-27T01:02:06.100 ,1,0,0.,12.0,0.,12.0,0.,12.0,0.,12.0
1989-08-27T01:02:18.100 ,1,0,0.,12.0,0.,12.0,0.,12.0,0.,12.0
1989-08-27T01:02:30.100 ,0,0,0.,12.0,0.,12.0,0.,12.0,0.,12.0
1989-08-27T01:02:42.100 ,0,0,0.,12.0,0.,12.0,0.,12.0,0.,12.0
1989-08-27T01:02:54.100 ,0,0,0.,12.0,0.,12.0,0.,12.0,0.,12.0
1989-08-27T01:03:06.100 ,0,0,0.,12.0,0.,12.0,0.,12.0,0.,12.0
1989-08-27T01:03:18.100 ,0,0,0.,12.0,0.,12.0,0.,12.0,0.,12.0
1989-08-27T01:03:30.100 ,0,0,0.,12.0,0.,12.0,0.,12.0,0.,12.0
1989-08-27T01:03:42.100 ,0,0,0.,12.0,0.,12.0,0.,12.0,0.,12.0
1989-08-27T01:03:54.100 ,0,0,0.,12.0,0.,12.0,0.,12.0,0.,12.0
1989-08-27T01:04:06.100 ,1,0,0.,12.0,0.,12.0,0.,12.0,0.,12.0
1989-08-27T01:04:18.100 ,1,0,0.,12.0,0.,12.0,0.,12.0,0.,12.0
1989-08-27T01:04:30.100 ,1,0,0.,12.0,0.,12.0,0.,12.0,0.,12.0
1989-08-27T01:04:42.100 ,1,0,0.,12.0,0.,12.0,0.,12.0,0.,12.0
1989-08-27T01:04:54.100 ,2,0,0.,12.0,0.,12.0,0.,12.0,0.,12.0
1989-08-27T01:05:06.100 ,2,0,0.,12.0,0.,12.0,0.,12.0,0.,12.0
1989-08-27T01:05:18.100 ,2,0,0.,12.0,0.,12.0,0.,12.0,0.,12.0
1989-08-27T01:05:30.100 ,2,0,0.,12.0,0.,12.0,0.,12.0,0.,12.0
1989-08-27T01:05:42.100 ,3,0,0.,12.0,0.,12.0,0.,12.0,0.,12.0
1989-08-27T01:05:54.100 ,3,0,0.,12.0,0.,12.0,0.,12.0,0.,12.0
1989-08-27T01:06:06.100 ,3,0,0.,12.0,0.,12.0,0.,12.0,0.,12.0
1989-08-27T01:06:18.100 ,3,0,0.,12.0,0.,12.0,0.,12.0,0.,12.0
1989-08-27T01:06:30.100 ,4,0,0.,12.0,0.,12.0,0.,12.0,0.,12.0
1989-08-27T01:06:42.100 ,4,0,0.,12.0,0.,12.0,0.,12.0,0.,12.0
1989-08-27T01:06:54.100 ,4,0,0.,12.0,0.,12.0,0.,12.0,0.,12.0
1989-08-27T01:07:06.100 ,4,0,0.,12.0,0.,12.0,0.,12.0,0.,12.0
1989-08-27T01:07:18.100 ,5,0,0.,12.0,0.,12.0,0.,12.0,0.,12.0
1989-08-27T01:07:30.100 ,5,0,0.,12.0,0.,12.0,0.,12.0,0.,12.0
1989-08-27T01:07:42.100 ,5,0,0.,12.0,0.,12.0,0.,12.0,0.,12.0
1989-08-27T01:07:54.100 ,5,0,0.,12.0,0.,12.0,0.,12.0,0.,12.0
1989-08-27T01:08:06.100 ,6,0,0.,12.0,0.,12.0,0.,12.0,0.,12.0
1989-08-27T01:08:18.100 ,6,0,0.,12.0,0.,12.0,0.,12.0,0.,12.0
1989-08-27T01:08:30.100 ,6,0,0.,12.0,0.,12.0,0.,12.0,0.,12.0
1989-08-27T01:08:42.100 ,6,0,0.,12.0,0.,12.0,0.,12.0,0.,12.0
1989-08-27T01:08:54.100 ,7,0,0.,12.0,0.,12.0,0.,12.0,0.,12.0
1989-08-27T01:09:06.100 ,7,0,0.,12.0,0.,12.0,0.,12.0,0.,12.0
1989-08-27T01:09:18.100 ,7,0,0.,12.0,0.,12.0,0.,12.0,0.,12.0
1989-08-27T01:09:30.100 ,7,0,0.,12.0,0.,12.0,0.,12.0,0.,12.0
1989-08-27T01:09:42.100 ,7,0,0.,12.0,0.,12.0,0.,12.0,0.,12.0
1989-08-27T01:09:54.100 ,7,0,0.,12.0,0.,12.0,0.,12.0,0.,12.0
1989-08-27T01:10:06.100 ,7,0,0.,12.0,0.,12.0,0.,12.0,0.,12.0
1989-08-27T01:10:18.100 ,7,0,0.,12.0,0.,12.0,0.,12.0,0.,12.0
1989-08-27T01:10:30.100 ,6,0,0.,12.0,0.,12.0,0.,12.0,0.,12.0
1989-08-27T01:10:42.100 ,6,0,0.,12.0,0.,12.0,0.,12.0,0.,12.0
1989-08-27T01:10:54.100 ,6,0,0.,12.0,0.,12.0,0.,12.0,0.,12.0
1989-08-27T01:11:06.100 ,6,0,0.,12.0,0.,12.0,0.,12.0,0.,12.0
1989-08-27T01:11:18.100 ,5,0,0.,12.0,0.,12.0,0.,12.0,0.,12.0
1989-08-27T01:11:30.100 ,5,0,0.,12.0,0.,12.0,0.,12.0,0.,12.0
1989-08-27T01:11:42.100 ,5,0,0.,12.0,0.,12.0,0.,12.0,0.,12.0
1989-08-27T01:11:54.100 ,5,0,0.,12.0,0.,12.0,0.,12.0,0.,12.0
1989-08-27T01:12:06.100 ,4,0,0.,12.0,0.,12.0,0.,12.0,0.,12.0
1989-08-27T01:12:18.100 ,4,0,0.,12.0,0.,12.0,0.,12.0,0.,12.0
1989-08-27T01:12:30.100 ,4,0,0.,12.0,0.,12.0,0.,12.0,0.,12.0
1989-08-27T01:12:42.100 ,4,0,0.,12.0,0.,12.0,0.,12.0,0.,12.0
1989-08-27T01:12:54.100 ,3,0,0.,12.0,0.,12.0,0.,12.0,0.,12.0
1989-08-27T01:13:06.100 ,3,0,0.,12.0,0.,12.0,0.,12.0,0.,12.0
1989-08-27T01:13:18.100 ,3,0,0.,12.0,0.,12.0,0.,12.0,0.,12.0
1989-08-27T01:13:30.100 ,3,0,0.,12.0,0.,12.0,0.,12.0,0.,12.0
1989-08-27T01:13:42.100 ,2,0,0.,12.0,0.,12.0,0.,12.0,0.,12.0
1989-08-27T01:13:54.100 ,2,0,0.,12.0,0.,12.0,0.,12.0,0.,12.0
1989-08-27T01:14:06.100 ,2,0,0.,12.0,0.,12.0,0.,12.0,0.,12.0
1989-08-27T01:14:18.100 ,2,0,0.,12.0,0.,12.0,0.,12.0,0.,12.0
1989-08-27T01:14:30.100 ,1,0,0.,12.0,0.,12.0,0.,12.0,0.,12.0
1989-08-27T01:14:42.100 ,1,0,0.,12.0,0.,12.0,0.,12.0,0.,12.0
1989-08-27T01:14:54.100 ,1,0,0.,12.0,0.,12.0,0.,12.0,0.,12.0
1989-08-27T01:15:06.100 ,1,0,0.,12.0,0.,12.0,0.,12.0,0.,12.0
1989-08-27T01:15:18.100 ,0,0,0.,12.0,0.,12.0,0.,12.0,0.,12.0
1989-08-27T01:15:30.100 ,0,0,0.,12.0,0.,12.0,0.,12.0,0.,12.0
1989-08-27T01:15:42.100 ,0,0,0.,12.0,0.,12.0,0.,12.0,0.,12.0
1989-08-27T01:15:54.100 ,0,0,0.,12.0,0.,12.0,0.,12.0,0.,12.0
1989-08-27T01:16:06.100 ,0,0,0.,12.0,0.,12.0,0.,12.0,0.,12.0
1989-08-27T01:16:18.100 ,0,0,0.,12.0,0.,12.0,0.,12.0,0.,12.0
1989-08-27T01:16:30.100 ,0,0,0.,12.0,0.,12.0,0.,12.0,0.,12.0
1989-08-27T01:16:42.100 ,0,0,0.,12.0,0.,12.0,0.,12.0,0.,12.0
1989-08-27T01:16:54.100 ,1,0,0.,12.0,0.,12.0,0.,12.0,0.,12.0
1989-08-27T01:17:06.100 ,1,0,0.,12.0,0.,12.0,0.,12.0,0.,12.0
1989-08-27T01:17:18.100 ,1,0,0.,12.0,0.,12.0,0.,12.0,0.,12.0
1989-08-27T01:17:30.100 ,1,0,0.,12.0,0.,12.0,0.,12.0,0.,12.0